Wind_Speed
24 22 20 20 19 19 18 16 14 14 13 10 7 6 5 5 4 3 6 7 8 9 13 18 21 23 27 29 31 32 40 48 37 31 32 32 31 34 35 37 39 42 45
26 23 21 21 20 19 18 17 14 13 13 12 9 7 6 7 5 4 5 7 5 6 11 14 16 23 26 31 36 44 45 49 50 49 39 31 28 33 34 36 39 42 45
29 26 25 22 20 19 19 18 16 15 13 12 11 9 8 9 9 9 8 6 2 5 9 11 13 20 26 31 39 46 50 54 44 55 60 55 33 25 33 36 39 42 46
31 28 26 24 22 22 21 19 19 16 14 12 11 11 10 11 11 13 11 5 1 3 6 9 13 20 27 33 38 45 50 52 49 53 45 46 42 27 32 36 42 45 49
32 31 28 26 26 26 25 22 21 18 16 15 13 12 11 12 14 16 14 10 6 5 8 11 16 21 28 32 37 40 43 51 48 50 51 57 60 42 41 36 39 44 47
31 32 31 30 29 28 27 25 23 21 18 17 14 14 13 14 17 19 17 15 12 11 9 14 18 24 29 34 36 44 54 46 53 59 56 58 60 62 66 61 46 47 48
31 33 35 33 31 29 30 29 27 24 22 19 17 16 15 16 19 22 20 20 18 16 16 19 22 27 29 36 38 44 43 51 51 57 57 59 61 63 66 71 58 59 55
32 35 36 35 33 32 32 31 29 28 25 24 22 20 21 20 20 22 26 21 21 19 19 23 25 25 30 37 40 43 51 51 56 60 64 61 65 68 69 67 73 71 62
27 31 33 34 35 34 33 31 30 29 27 26 25 24 22 22 22 24 23 22 25 24 24 25 27 23 29 38 41 49 44 52 55 60 62 63 66 66 70 70 76 65 67
24 28 33 35 37 38 36 34 33 32 29 30 30 27 25 26 23 24 25 21 22 25 27 29 27 27 37 39 44 38 46 49 53 56 61 63 63 64 69 74 78 63 65
25 29 35 36 38 41 40 38 36 36 34 32 31 29 29 28 27 24 26 23 22 26 27 27 28 24 32 40 45 51 44 48 54 59 63 61 59 62 63 69 76 69 67
33 34 35 37 39 41 44 42 40 38 36 33 32 31 28 29 27 26 27 30 27 25 23 22 25 27 32 39 43 46 50 51 59 62 65 60 58 56 63 69 72 71 77
39 38 36 37 41 43 45 47 44 40 36 34 33 32 30 30 30 29 29 33 34 29 25 27 26 29 33 37 44 42 53 56 62 64 65 59 58 57 61 61 61 67 74
34 38 39 38 40 41 44 48 48 43 38 35 34 33 32 33 32 32 32 37 40 32 31 28 29 31 35 38 42 46 53 56 62 65 64 59 57 57 59 61 57 47 62
31 35 41 39 38 40 41 45 46 44 42 40 38 37 37 37 36 37 36 41 43 36 35 32 32 35 39 42 46 54 49 56 63 64 60 56 55 56 57 66 68 63 49
36 33 34 36 36 37 40 42 43 44 45 41 40 39 40 38 38 38 41 43 42 39 37 37 35 39 42 46 49 51 53 58 62 62 56 55 55 55 57 60 62 60 53
36 35 35 34 35 37 38 37 38 41 41 39 38 38 38 37 37 39 42 45 43 41 39 39 39 42 46 49 52 51 55 59 62 59 53 52 55 56 55 55 50 52 46
36 35 33 31 33 33 34 34 36 36 34 33 34 34 35 35 38 39 45 46 42 42 42 41 43 46 49 51 51 54 57 60 59 55 50 50 53 53 53 52 48 42 47
38 38 35 34 33 32 32 32 32 33 33 34 35 35 37 37 38 39 40 42 45 42 44 44 46 49 51 52 54 57 57 62 57 54 49 49 50 49 55 49 56 39 45
43 41 39 37 35 32 30 30 31 32 33 34 35 35 34 36 34 34 36 40 42 43 45 48 51 51 52 55 57 59 58 61 52 50 49 49 49 49 52 43 45 37 42
40 43 41 41 38 36 34 34 32 32 31 31 30 32 31 32 32 33 35 40 43 46 48 49 51 52 57 59 61 62 61 53 54 48 46 48 48 47 50 43 36 36 43
42 43 42 43 45 42 39 38 38 36 35 34 36 38 39 39 40 41 42 44 46 49 51 53 55 57 60 60 62 60 49 50 49 45 45 45 47 45 45 36 34 34 38
50 49 50 49 48 45 47 48 45 43 42 39 38 41 44 45 47 48 50 52 54 56 58 58 58 58 57 55 55 50 48 48 46 46 43 43 42 41 34 30 28 34 35
56 55 60 59 59 52 50 48 49 50 49 46 46 42 43 47 51 54 55 56 60 61 61 62 62 58 56 56 53 49 45 44 44 41 38 42 39 34 38 31 26 32 31
63 65 63 59 61 61 64 58 56 47 41 43 59 45 38 41 46 51 56 58 54 55 58 60 61 59 55 51 49 45 42 42 40 37 37 39 39 36 35 28 28 31 32
64 71 75 69 64 50 50 42 36 40 48 45 40 43 47 46 43 44 45 47 47 49 51 53 57 58 51 49 47 43 44 40 41 39 38 38 39 36 37 31 31 35 36
Wind_Direction
210 202 201 203 207 213 207 197 183 174 177 177 167 167 168 166 145 116 107 100 86 62 43 29 20 18 14 13 8 3 2 359 354 345 340 338 336 335 333 335 335 333 333
214 210 208 210 210 211 215 206 196 190 193 196 191 186 197 196 198 189 148 122 98 52 36 25 16 13 7 5 360 360 0 355 352 338 341 330 336 329 328 329 329 330 330
217 215 213 213 215 216 217 220 212 211 209 211 215 212 217 210 211 209 185 152 114 34 22 357 359 358 357 356 357 355 358 352 349 347 345 359 340 336 324 327 327 330 331
220 220 218 218 216 219 224 224 228 219 216 213 224 228 231 216 219 216 204 189 184 345 347 347 341 347 351 351 353 351 349 343 346 357 9 357 346 335 333 326 330 332 335
227 224 222 223 222 222 225 226 233 235 232 229 231 235 243 233 224 220 215 219 243 293 319 321 333 336 350 347 350 343 349 359 357 348 349 352 343 345 348 334 326 328 329
230 230 226 226 227 227 228 229 231 237 242 240 233 247 251 250 235 227 229 234 244 279 297 312 323 325 331 339 337 333 345 341 342 341 344 350 343 340 344 343 343 325 324
222 225 226 227 228 230 232 231 233 236 242 250 245 241 252 259 251 241 236 242 246 269 282 302 305 311 325 329 342 351 354 351 344 342 343 342 338 337 340 337 343 342 330
223 221 224 228 229 231 234 236 235 237 241 243 250 250 253 259 264 257 253 253 249 263 280 288 294 313 325 330 349 336 340 342 340 341 339 340 337 338 338 338 334 340 344
229 232 230 229 230 232 234 236 239 240 241 244 245 250 254 255 263 268 271 266 262 263 271 275 289 315 324 337 336 333 342 337 338 337 337 340 338 339 337 340 335 334 346
240 238 233 234 231 231 233 235 238 241 240 241 245 247 252 257 264 272 273 276 272 261 262 274 291 310 323 331 331 348 343 336 338 336 337 340 338 339 336 337 330 338 342
250 244 240 236 236 234 232 233 236 241 243 242 245 247 248 252 259 263 269 270 266 260 268 285 309 321 327 320 329 327 340 337 335 338 336 337 338 336 339 340 340 337 344
238 237 238 235 237 238 235 234 237 240 244 246 248 251 253 253 254 254 263 267 260 263 278 298 308 316 329 324 323 320 331 334 334 335 334 335 335 332 333 341 344 329 339
248 240 235 235 235 236 234 235 235 237 240 245 247 251 253 251 251 247 253 260 263 267 281 291 303 316 322 320 316 330 324 333 331 331 333 333 332 332 332 336 342 342 336
251 234 233 237 237 240 240 236 235 237 239 244 248 249 250 251 251 246 248 253 257 267 276 287 300 307 315 313 312 315 320 326 330 330 330 330 329 330 335 334 333 336 336
256 246 237 238 238 239 241 240 238 239 240 242 244 246 248 249 248 247 247 251 259 267 278 285 294 302 306 305 305 317 320 327 326 328 326 327 329 331 333 332 335 333 336
251 245 242 246 248 247 243 239 237 238 242 244 247 249 252 252 252 252 250 256 260 270 275 282 290 295 299 302 305 315 324 323 323 325 325 326 327 330 332 340 337 332 337
243 243 246 243 241 242 239 238 239 241 243 245 249 252 256 257 256 255 253 256 263 268 275 279 285 291 296 299 307 315 319 319 322 322 324 323 325 330 332 338 344 334 341
239 236 237 236 232 233 238 240 240 241 242 243 243 244 246 250 252 254 253 256 263 268 272 277 285 288 291 298 305 311 316 319 319 318 320 321 325 330 330 335 336 328 339
237 233 229 231 232 232 234 237 239 238 236 235 236 238 240 246 250 257 259 259 261 265 270 276 282 286 290 297 303 306 312 316 315 317 317 322 324 325 332 331 335 330 339
233 229 227 227 230 231 230 233 233 234 236 237 241 245 248 252 254 258 260 261 264 268 271 276 280 285 291 294 299 304 310 312 311 316 319 321 324 327 329 331 332 332 341
232 231 230 229 227 227 221 222 229 231 230 234 241 245 248 253 256 259 261 265 269 272 275 278 281 286 290 294 298 303 306 307 311 315 318 318 322 321 328 329 328 327 334
239 237 228 231 227 222 225 228 228 227 232 242 247 248 249 251 255 261 266 270 274 275 277 279 281 283 289 295 299 301 301 306 310 313 315 315 318 321 323 321 317 325 331
230 235 238 228 228 227 227 225 226 225 227 230 239 251 255 256 262 263 265 268 272 273 274 275 279 285 291 297 302 299 300 304 306 309 311 313 316 322 325 317 317 321 329
233 226 236 228 226 224 229 231 239 239 245 242 239 241 252 260 258 259 265 272 275 277 275 277 280 287 292 292 296 296 299 299 301 306 309 310 314 316 320 312 312 320 331
230 232 237 222 220 228 226 228 232 240 245 259 248 242 253 259 257 260 261 270 282 284 280 277 280 288 290 287 290 293 295 298 300 302 306 303 309 311 319 302 302 313 323
247 243 244 250 248 236 229 232 248 253 249 252 249 250 254 259 261 265 269 275 280 287 284 283 282 286 285 286 288 289 293 296 297 300 302 301 303 305 313 304 291 298 311
Height
5924 5926 5930 5932 5936 5939 5941 5942 5943 5944 5945 5947 5948 5949 5950 5950 5950 5950 5950 5949 5949 5948 5946 5944 5941 5939 5936 5932 5928 5924 5920 5914 5907 5900 5893 5886 5880 5875 5869 5863 5857 5848 5840
5921 5924 5927 5930 5933 5937 5939 5941 5942 5943 5943 5944 5946 5947 5948 5949 5949 5950 5949 5949 5948 5947 5945 5944 5942 5939 5935 5930 5926 5922 5917 5911 5904 5897 5889 5878 5875 5868 5862 5856 5848 5840 5832
5917 5920 5923 5927 5931 5935 5937 5940 5940 5941 5942 5943 5944 5945 5945 5946 5947 5948 5948 5947 5946 5946 5945 5943 5941 5937 5933 5929 5925 5919 5914 5908 5899 5891 5882 5873 5868 5862 5856 5849 5840 5832 5823
5913 5916 5920 5923 5927 5930 5933 5936 5938 5939 5940 5941 5942 5943 5943 5944 5944 5946 5946 5945 5944 5944 5943 5941 5938 5935 5931 5927 5923 5917 5911 5905 5898 5890 5881 5870 5865 5857 5849 5842 5834 5825 5815
5907 5912 5916 5919 5922 5925 5929 5932 5935 5937 5937 5938 5939 5940 5941 5941 5941 5942 5943 5943 5943 5942 5941 5939 5936 5932 5930 5925 5921 5916 5909 5901 5894 5887 5876 5867 5856 5850 5842 5834 5825 5816 5805
5902 5907 5911 5914 5918 5921 5925 5929 5931 5933 5935 5936 5937 5937 5938 5938 5938 5939 5939 5939 5939 5939 5938 5936 5933 5930 5926 5923 5918 5910 5906 5897 5890 5882 5873 5865 5855 5847 5839 5824 5816 5805 5796
5895 5900 5904 5908 5913 5917 5920 5923 5926 5929 5931 5932 5933 5934 5934 5934 5934 5935 5935 5935 5935 5935 5934 5932 5929 5926 5923 5919 5915 5909 5902 5896 5887 5878 5869 5860 5852 5842 5831 5821 5807 5797 5788
5889 5893 5897 5902 5907 5910 5913 5917 5920 5923 5925 5927 5928 5928 5930 5930 5930 5930 5931 5931 5931 5931 5930 5927 5924 5922 5919 5914 5909 5904 5898 5891 5882 5873 5865 5855 5845 5835 5824 5813 5803 5790 5782
5888 5891 5893 5896 5899 5903 5907 5911 5914 5916 5919 5921 5922 5923 5924 5925 5925 5924 5925 5927 5927 5927 5925 5922 5918 5918 5915 5910 5904 5898 5893 5886 5878 5868 5860 5851 5840 5830 5819 5806 5797 5788 5778
5882 5884 5885 5888 5892 5895 5899 5903 5906 5908 5911 5913 5914 5917 5919 5919 5920 5920 5919 5921 5923 5921 5919 5917 5916 5914 5908 5904 5898 5892 5887 5880 5873 5864 5855 5845 5835 5824 5813 5800 5788 5781 5772
5873 5876 5878 5881 5884 5887 5890 5894 5898 5900 5902 5905 5907 5909 5911 5912 5913 5914 5913 5914 5916 5916 5914 5913 5911 5910 5905 5898 5893 5889 5882 5875 5868 5859 5849 5840 5831 5819 5810 5797 5786 5776 5765
5862 5865 5869 5873 5875 5878 5882 5886 5889 5891 5895 5898 5900 5902 5904 5905 5906 5908 5907 5906 5908 5909 5909 5908 5906 5903 5899 5894 5888 5882 5877 5870 5862 5853 5845 5835 5826 5816 5806 5795 5782 5771 5763
5854 5857 5860 5862 5864 5867 5871 5875 5878 5882 5886 5890 5892 5895 5896 5897 5898 5900 5900 5899 5900 5901 5902 5902 5900 5896 5892 5888 5882 5877 5871 5864 5857 5849 5840 5830 5821 5812 5800 5790 5779 5767 5759
5843 5846 5850 5853 5856 5858 5861 5865 5869 5874 5879 5882 5884 5887 5888 5889 5891 5893 5893 5891 5890 5893 5893 5894 5893 5890 5885 5882 5877 5872 5866 5860 5852 5844 5834 5826 5818 5807 5796 5784 5773 5764 5755
5834 5837 5840 5843 5846 5849 5852 5856 5861 5866 5870 5872 5875 5877 5878 5879 5882 5883 5884 5882 5881 5885 5885 5887 5885 5882 5878 5874 5870 5866 5861 5853 5846 5838 5827 5820 5810 5802 5790 5780 5767 5761 5751
5826 5827 5830 5834 5838 5841 5844 5847 5851 5855 5859 5863 5866 5868 5870 5872 5873 5875 5876 5874 5874 5878 5879 5878 5878 5875 5871 5867 5863 5859 5853 5847 5839 5830 5822 5812 5805 5796 5786 5776 5765 5758 5749
5815 5818 5820 5823 5827 5831 5834 5838 5841 5844 5848 5852 5856 5859 5862 5864 5866 5866 5868 5867 5868 5869 5870 5869 5868 5867 5862 5859 5855 5851 5845 5840 5831 5823 5815 5807 5799 5791 5781 5773 5761 5753 5745
5805 5808 5810 5813 5817 5821 5825 5829 5832 5835 5839 5842 5844 5847 5850 5853 5854 5856 5857 5858 5861 5860 5860 5859 5859 5857 5854 5851 5847 5841 5837 5829 5823 5816 5808 5802 5794 5786 5776 5769 5760 5750 5742
5795 5799 5802 5805 5809 5812 5816 5819 5822 5826 5828 5831 5834 5836 5838 5841 5843 5846 5848 5850 5849 5850 5850 5850 5850 5848 5845 5842 5838 5834 5829 5821 5814 5808 5802 5795 5788 5780 5772 5763 5753 5747 5740
5784 5788 5791 5795 5799 5803 5806 5810 5813 5817 5820 5822 5825 5827 5830 5832 5834 5836 5839 5840 5841 5842 5842 5841 5841 5839 5836 5833 5830 5826 5820 5812 5807 5802 5795 5788 5782 5775 5767 5757 5752 5745 5737
5772 5776 5782 5783 5788 5792 5795 5799 5804 5808 5810 5812 5816 5819 5822 5823 5826 5828 5829 5831 5832 5832 5831 5831 5830 5829 5826 5823 5819 5815 5811 5803 5798 5794 5788 5781 5775 5769 5761 5753 5746 5742 5734
5762 5766 5769 5772 5776 5780 5784 5789 5793 5795 5799 5801 5806 5810 5812 5814 5815 5816 5818 5819 5819 5819 5819 5819 5819 5817 5814 5812 5808 5804 5798 5794 5789 5785 5780 5774 5769 5762 5754 5747 5741 5737 5732
5749 5753 5757 5759 5762 5766 5771 5774 5777 5779 5783 5786 5791 5797 5802 5802 5803 5804 5805 5806 5806 5806 5806 5806 5806 5804 5803 5800 5796 5792 5789 5785 5780 5777 5773 5767 5762 5755 5748 5742 5737 5733 5728
5734 5735 5741 5746 5749 5752 5758 5762 5766 5770 5774 5776 5779 5781 5786 5789 5790 5791 5791 5792 5791 5791 5791 5791 5791 5791 5790 5787 5784 5781 5779 5775 5771 5768 5763 5759 5755 5749 5744 5737 5733 5730 5725
5723 5725 5724 5728 5734 5737 5741 5747 5752 5753 5757 5763 5765 5768 5771 5774 5775 5776 5776 5778 5779 5777 5777 5776 5777 5777 5776 5774 5771 5769 5767 5765 5762 5759 5756 5751 5748 5743 5738 5733 5729 5725 5721
5709 5711 5712 5715 5720 5723 5726 5729 5731 5736 5745 5750 5751 5753 5757 5758 5759 5761 5762 5764 5766 5764 5763 5763 5763 5764 5763 5762 5760 5758 5756 5754 5750 5749 5746 5743 5739 5736 5732 5727 5724 5720 5716